Regional Weather Roundup
Issued by NWS Sioux Falls, SD

Home | Current Version | Previous Version | Text Only | Print | Product List | Glossary On
Versions: 1 2 3 4 5 6 7 8 9 10 11 12 13 14 15 16 17 18 19 20 21 22 23 24 25 26 27 28 29 30 31 32 33 34 35 36 37 38 39 40 41 42 43 44 45 46 47 48 49 50
000
ASUS43 KFSD 271510
RWRFSD

WEATHER ROUNDUP FOR SE SOUTH DAKOTA/SW MINNESOTA/NW IOWA
NATIONAL WEATHER SERVICE SIOUX FALLS SD
1000 AM CDT THU APR 27 2017

NOTE: "FAIR" INDICATES FEW OR NO CLOUDS BELOW 12,000 FEET WITH NO
SIGNIFICANT WEATHER AND OR OBSTRUCTIONS TO VISIBILITY.


SDZ038>040-050-052>070-271600-
SOUTHEAST SOUTH DAKOTA

CITY           SKY/WX    TMP DP  RH WIND       PRES   REMARKS
BROOKINGS      CLOUDY    30  25  81 NW17      29.66R WCI  18
CHAMBERLAIN    CLOUDY    37  29  75 NW5       29.73R
HURON          CLOUDY    35  26  69 N17       29.72R WCI  25
MADISON        CLOUDY    30  30 100 N15G23    29.67S WCI  19
MITCHELL       CLOUDY    34  27  75 N14       29.73R WCI  25
SIOUX FALLS    CLOUDY    34  25  69 NW15      29.69R WCI  24
WINNER         CLOUDY    35  28  75 N7        29.73R WCI  29
YANKTON        CLOUDY    36  25  64 NW15      29.73R
$$

MNZ071-072-080-081-089-090-097-098-271600-
SOUTHWEST MINNESOTA

CITY           SKY/WX    TMP DP  RH WIND       PRES   REMARKS
FAIRMONT       CLOUDY    31  27  85 NW17      29.62R WCI  19
JACKSON        CLOUDY    30  27  86 NW16      29.63R WCI  19
LUVERNE        CLOUDY    32  23  69 NW14G21   29.67R WCI  22
MARSHALL       CLOUDY    31  24  75 N20G26    29.63S WCI  19
MONTEVIDEO     CLOUDY    30  27  86 N20G25    29.62S WCI  18
PIPESTONE      MOSUNNY   34  19  55 N13G23    29.63R WCI  25
REDWOOD FALLS  FLURRIES  31  26  82 NW15G22   29.60S WCI  20
TRACY          CLOUDY    31  26  83 NW20      29.63R WCI  19
WINDOM         CLOUDY    30  27  86 W17       29.61R WCI  18
WORTHINGTON      N/A     32  24  72 NW21G26   29.64  WCI  20
$$

IAZ001>003-012>014-020>022-031-032-NEZ013-014-SDZ071-271600-
NORTHWEST IOWA

CITY           SKY/WX    TMP DP  RH WIND       PRES   REMARKS
CHEROKEE       CLOUDY    33  30  90 W8        29.69R WCI  26
DENISON        CLOUDY    34  30  86 NW15G22   29.71R WCI  24
ESTHERVILLE    CLOUDY    30  26  85 W18       29.63R WCI  18
LE MARS        CLOUDY    34  28  80 W14       29.71S WCI  24
ORANGE CITY    CLOUDY    32  30  93 NW15G21   29.68R WCI  22
SHELDON        CLOUDY    32  28  86 NW15      29.66R WCI  22
SIOUX CITY     CLOUDY    36  28  73 NW16      29.72R
SPENCER        CLOUDY    32  26  78 NW15      29.66R WCI  22
STORM LAKE       N/A     32  28  86 NW20      29.67R WCI  20
$$

ABBREVIATIONS USED IN REMARKS
   TC - TEMPERATURE IN CELSIUS
  WCI - WIND CHILL INDEX
   HX - HEAT INDEX
  VSB - VISIBILITY




USA.gov is the U.S. government's official web portal to all federal, state and local government web resources and services.